Regional Weather Roundup
Issued by NWS

Home | Current Version | Previous Version | Text Only | Print | Product List | Glossary Off
Versions: 1 2 3 4 5 6 7 8 9 10 11 12 13 14 15 16 17 18 19 20 21 22 23 24 25 26 27 28 29 30 31 32 33 34 35 36 37 38 39 40 41 42 43 44 45 46 47 48 49 50

000
ASUS43 KOAX 271202
RWRNE

WEATHER ROUNDUP FOR NEBRASKA
NATIONAL WEATHER SERVICE OMAHA NE
600 AM CST THU NOV 27 2014

NOTES: SATELLITE DATA IS BEING USED TO AUGMENT CLOUD COVER ABOVE
       12000 FEET.
       "FAIR" INDICATES FEW OR NO CLOUDS BELOW 12,000 FEET WITH NO
       SIGNIFICANT WEATHER AND/OR OBSTRUCTIONS TO VISIBILITY.

  * THESE STATIONS DO NOT REPORT WEATHER SUCH AS RAIN...SNOW OR FOG.

NEZ001>004-019>022-054>056-271300-
NEBRASKA PANHANDLE

CITY           SKY/WX    TMP DP  RH WIND       PRES   REMARKS
SCOTTSBLUFF    MOCLDY    16  14  92 CALM      30.17F
6HR MIN TEMP:  11; 6HR MAX TEMP:  22;

ALLIANCE       PTCLDY    16  15  96 SE6       30.16F WCI   7
6HR MIN TEMP:  16; 6HR MAX TEMP:  25;

CHADRON        PTCLDY   N/A N/A N/A CALM      30.16F
SIDNEY         PTCLDY    20  17  88 SW10      30.19F WCI   9
6HR MIN TEMP:  13; 6HR MAX TEMP:  21;

$$

NEZ057>060-069>072-079>082-271300-
SOUTHWEST NEBRASKA

CITY           SKY/WX    TMP DP  RH WIND       PRES   REMARKS
NORTH PLATTE   PTCLDY    22  17  81 SE10      30.31F WCI  11
6HR MIN TEMP:  19; 6HR MAX TEMP:  26;

IMPERIAL       PTCLDY    23  19  85 S8        30.26F WCI  14
6HR MIN TEMP:  20; 6HR MAX TEMP:  29;

MCCOOK         PTCLDY    20  17  88 S6        30.32F WCI  12
6HR MIN TEMP:  19; 6HR MAX TEMP:  30;

$$

NEZ005>010-023>029-035>040-094-271300-
NORTH CENTRAL NEBRASKA

CITY           SKY/WX    TMP DP  RH WIND       PRES   REMARKS
VALENTINE      CLOUDY    21  16  81 E10       30.28F WCI  10
6HR MIN TEMP:  21; 6HR MAX TEMP:  23;

BROKEN BOW     CLOUDY    23  16  74 VRB5      30.35F WCI  17
6HR MIN TEMP:  20; 6HR MAX TEMP:  23;

ORD            CLOUDY    18  12  77 SE6       30.39S WCI  10
6HR MIN TEMP:  13; 6HR MAX TEMP:  19;

$$

NEZ041-046>049-061>064-073>077-083>087-271300-
SOUTH CENTRAL NEBRASKA

CITY           SKY/WX    TMP DP  RH WIND       PRES   REMARKS
GRAND ISLAND   CLOUDY    20  13  74 S6        30.44S WCI  12
6HR MIN TEMP:  15; 6HR MAX TEMP:  20;

HASTINGS       CLOUDY    20  14  77 S5        30.42R WCI  13
6HR MIN TEMP:  15; 6HR MAX TEMP:  21;

KEARNEY *      CLOUDY    18  14  86 CALM      30.43R
$$

NEZ011>018-030>034-042>045-271300-
NORTHEAST NEBRASKA

CITY           SKY/WX    TMP DP  RH WIND       PRES   REMARKS
NORFOLK        CLOUDY    15   8  73 NE6       30.44F WCI   6
6HR MIN TEMP:  14; 6HR MAX TEMP:  17;

COLUMBUS *     CLOUDY    16   7  67 NE3       30.47R
TEKAMAH        CLOUDY    13   1  59 N10       30.52R WCI   0
6HR MIN TEMP:  13; 6HR MAX TEMP:  19;

$$

NEZ050>053-065>068-078-088>093-271300-
SOUTHEAST NEBRASKA

CITY           SKY/WX    TMP DP  RH WIND       PRES   REMARKS
LINCOLN        MOCLDY    16   9  74 NE6       30.48F WCI   7
6HR MIN TEMP:  12; 6HR MAX TEMP:  19;

OMAHA EPPLEY   CLOUDY    17  11  77 N13       30.51F WCI   4
6HR MIN TEMP:  15; 6HR MAX TEMP:  21;

FALLS CITY     MOCLDY    20  15  81 N8        30.48F WCI  10
6HR MIN TEMP:  20; 6HR MAX TEMP:  24;

$$

NEZ044-045-051>053-067-271300-
OMAHA AREA

CITY           SKY/WX    TMP DP  RH WIND       PRES   REMARKS
OMAHA EPPLEY   CLOUDY    17  11  77 N13       30.51F WCI   4
6HR MIN TEMP:  15; 6HR MAX TEMP:  21;

OFFUTT AFB     MOCLDY    16  11  79 N7        30.50S WCI   6
$$



USA.gov is the U.S. government's official web portal to all federal, state and local government web resources and services.